Weather History for KGNA - June, 2014

Change the Weather History Date:

Sunday, June 29, 2014

  Actual Average (KCKC) Record (KCKC)
Temperature  
Mean Temperature 56 °F -  
Max Temperature 63 °F 68 °F 86 °F (2001)
Min Temperature 50 °F 48 °F 39 °F (2011)
Degree Days  
Heating Degree Days 8    
Growing Degree Days 6 (Base 50)    
Moisture  
Dew Point 52 °F    
Average Humidity 94    
Maximum Humidity 100    
Minimum Humidity 83    
Precipitation  
Precipitation 0.19 in - - ()
Sea Level Pressure  
Sea Level Pressure 29.64 in    
Wind  
Wind Speed 4 mph (ENE)    
Max Wind Speed 9 mph    
Max Gust Speed -    
Averages and records for this station are not official NWS values.
T = Trace of Precipitation, MM = Missing Value Source: NWS Daily Summary

Daily Weather History Graph

Daily Weather History Graph

Search for Another Location

Airport or City:

Trip Planner

Search our weather history database for the weather conditions in past years. The results will help you decide how hot, cold, wet, or windy it might be!

Date:

Astronomy

Jun. 29, 2014 Rise Set
Actual Time 5:05 AM CDT 9:03 PM CDT
Civil Twilight 4:25 AM CDT 9:44 PM CDT
Nautical Twilight 3:28 AM CDT 10:40 PM CDT
Astronomical Twilight 1:58 AM CDT 12:09 AM CDT
Moon 7:36 AM CDT (6/29) 10:09 PM CDT (6/29)
Length of Visible Light 17h 18m
Length of Day
15h 57m
Waxing Crescent, 5% of the Moon is Illuminated
Jun 29
Waxing Crescent
Jul 5
First Quarter
Jul 12
Full
Jul 18
Last Quarter
Jul 26
New

Hourly Weather History & Observations

Time (CDT) Temp. Dew Point Humidity Pressure Visibility Wind Dir Wind Speed Gust Speed Precip Events Conditions
12:56 AM 51.1 °F 51.1 °F 100% 29.76 in - SSW 4.6 mph - 0.01 in   Unknown
1:56 AM 52.0 °F 51.1 °F 97% 29.70 in - ENE 4.6 mph - 0.06 in   Unknown
2:56 AM 50.0 °F 48.9 °F 96% 29.68 in - East 3.5 mph - N/A   Unknown
3:56 AM 54.0 °F 53.1 °F 97% 29.70 in - Calm Calm - N/A   Unknown
4:56 AM 54.0 °F 53.1 °F 97% 29.69 in - Calm Calm - N/A   Unknown
5:56 AM 57.9 °F 57.0 °F 97% 29.68 in - Calm Calm - N/A   Unknown
6:56 AM 55.0 °F 54.0 °F 96% 29.69 in - NE 3.5 mph - N/A   Unknown
7:56 AM 52.0 °F 52.0 °F 100% 29.69 in - ENE 5.8 mph - N/A   Unknown
8:56 AM 52.0 °F 51.1 °F 97% 29.69 in - Calm Calm - N/A   Unknown
9:56 AM 52.0 °F 52.0 °F 100% 29.68 in - ENE 5.8 mph - N/A   Unknown
10:56 AM 51.1 °F 50.0 °F 96% 29.67 in - ENE 3.5 mph - N/A   Unknown
11:56 AM 53.1 °F 52.0 °F 96% 29.66 in - ENE 3.5 mph - N/A   Unknown
12:56 PM 53.1 °F 51.1 °F 93% 29.65 in - East 3.5 mph - N/A   Unknown
1:56 PM 50.0 °F 48.0 °F 93% 29.65 in - ENE 4.6 mph - N/A   Unknown
2:56 PM 50.0 °F 48.9 °F 96% 29.63 in - East 5.8 mph - N/A   Unknown
3:56 PM 63.0 °F 57.9 °F 84% 29.61 in - SW 3.5 mph - N/A   Unknown
4:56 PM 55.0 °F 52.0 °F 89% 29.61 in - Variable 3.5 mph - N/A   Unknown
5:56 PM 52.0 °F 48.0 °F 86% 29.57 in - Variable 3.5 mph - 0.12 in   Unknown
6:56 PM 59.0 °F 54.0 °F 83% 29.58 in - East 9.2 mph - N/A   Unknown
7:56 PM 55.0 °F 52.0 °F 89% 29.57 in - Calm Calm - N/A   Unknown
8:56 PM 55.9 °F 53.1 °F 90% 29.58 in - ENE 5.8 mph - N/A   Unknown
9:56 PM 53.1 °F 51.1 °F 93% 29.58 in - ENE 3.5 mph - N/A   Unknown
10:56 PM 51.1 °F 50.0 °F 96% 29.58 in - ENE 4.6 mph - N/A   Unknown
11:56 PM 50.0 °F 48.9 °F 96% 29.57 in - ENE 3.5 mph - N/A   Unknown